Lapse_Rate
6.7 7.1 7.4 6.9 6.4 6.1 6.7 6.2 5.8 6.0 5.9 5.9 5.8 5.7 5.8 5.5 5.6 5.5 5.3 5.1 5.2 5.3 5.3 5.3 5.6 5.7 5.7 5.6 5.7 5.8 5.8 5.8 5.7 5.7 5.5 5.5 5.4 5.5 5.5 5.5 5.4 5.5 5.6 5.6 5.6 5.6 5.6 5.5 5.4
6.5 6.7 7.0 6.7 7.4 7.2 6.8 6.3 6.2 5.9 6.0 5.8 5.9 5.9 5.5 5.6 6.1 6.0 5.7 5.2 5.2 5.1 5.2 5.4 5.7 5.8 5.7 5.7 5.8 5.8 5.7 5.7 5.7 5.7 5.7 5.8 5.6 5.5 5.6 5.7 5.7 5.6 5.7 5.7 5.7 5.6 5.5 5.5 5.5
6.8 7.0 6.6 6.3 7.8 7.5 6.7 6.6 6.1 6.2 5.9 5.8 5.6 5.4 5.1 5.2 5.7 6.0 5.8 5.5 5.3 5.2 5.4 5.6 5.7 5.7 5.7 5.7 5.7 5.7 5.7 5.8 5.8 5.7 5.8 5.9 5.9 5.8 5.8 5.8 5.8 5.7 5.8 5.8 5.7 5.6 5.7 5.7 5.7
6.9 7.1 7.0 8.1 7.3 7.2 7.0 6.8 6.4 6.2 5.9 5.7 5.5 5.7 5.1 4.7 4.8 5.7 5.5 4.6 5.3 5.2 5.5 5.7 5.8 5.8 5.6 5.7 5.8 5.8 6.0 6.0 6.0 5.9 5.9 6.0 6.0 5.9 5.9 5.9 5.9 5.9 5.9 5.9 5.9 5.8 5.9 5.9 6.0
7.2 6.0 7.1 7.5 7.4 7.3 6.9 6.6 6.3 6.1 5.9 5.9 5.8 5.1 5.7 5.4 5.7 5.6 5.4 5.3 5.4 5.4 5.7 5.7 5.8 5.9 5.8 5.9 6.0 6.1 6.2 6.0 6.0 6.0 6.0 6.1 6.1 6.1 6.0 6.0 6.0 6.1 6.1 6.1 6.0 6.0 6.1 6.2 6.3
6.2 6.7 7.5 7.3 7.0 6.9 6.6 6.6 6.6 6.4 6.1 5.6 5.7 6.0 5.9 5.9 5.8 5.7 5.2 5.3 5.2 5.6 5.9 5.8 5.8 5.8 6.2 6.1 6.1 6.2 6.2 6.0 6.0 6.1 6.3 6.3 6.3 6.2 6.2 6.3 6.3 6.3 6.3 6.3 6.3 6.4 6.4 6.4 6.4
5.1 6.1 8.0 7.7 6.9 6.5 6.3 6.4 6.5 6.1 5.9 5.7 5.4 5.7 6.4 6.1 6.0 5.8 5.3 5.1 5.1 5.6 5.9 5.9 5.9 5.8 6.1 6.2 6.2 6.1 6.0 5.9 6.0 6.2 6.3 6.3 6.3 6.3 6.4 6.4 6.4 6.4 6.5 6.6 6.7 6.6 6.5 6.5 6.5
6.4 7.8 7.7 7.9 7.3 6.6 6.3 6.1 6.1 6.1 5.6 5.5 5.2 5.5 6.2 5.9 5.7 5.8 5.3 4.8 5.2 5.5 5.7 5.9 6.0 5.8 5.8 6.2 6.2 6.0 5.9 6.0 6.1 6.2 6.3 6.2 6.2 6.4 6.5 6.3 6.5 6.6 6.6 6.7 6.8 6.7 6.5 6.5 6.7
7.1 7.9 8.3 8.0 7.1 6.5 6.3 6.1 6.0 5.7 5.6 5.7 5.9 5.9 5.3 6.0 5.8 5.7 5.7 5.0 5.3 5.4 5.3 5.8 6.0 5.8 6.0 6.0 6.0 6.0 5.8 6.1 6.2 6.1 5.9 5.9 5.5 6.1 6.4 6.4 6.5 6.7 6.7 6.7 6.7 6.8 6.5 6.6 6.7
7.1 8.4 7.8 7.2 6.9 6.6 6.4 6.2 6.0 6.0 5.8 6.0 5.9 5.4 6.1 5.8 5.6 5.2 5.1 5.0 5.1 5.2 5.7 6.1 6.0 5.8 5.6 5.2 5.9 5.8 5.7 5.6 6.3 6.2 5.0 5.0 5.7 6.0 6.3 6.4 6.4 6.5 6.5 6.5 6.6 6.5 6.5 6.6 6.5
7.2 7.5 7.2 7.1 6.9 6.7 6.5 6.4 6.4 6.3 6.0 5.5 5.2 5.9 5.9 4.8 5.3 5.1 4.9 5.2 5.0 5.1 5.6 6.0 5.9 5.8 5.1 5.6 5.5 4.6 4.6 5.7 5.8 6.1 5.8 5.7 5.3 5.5 5.5 6.0 6.0 6.0 6.4 6.0 6.4 6.7 6.2 6.5 6.2
7.2 7.0 7.0 6.7 6.7 6.5 6.3 6.4 6.5 6.7 6.2 5.7 5.6 5.6 5.2 4.8 4.9 5.0 5.1 4.9 5.3 4.9 5.2 6.1 5.9 6.0 5.3 5.6 4.7 4.6 4.6 4.7 5.4 5.8 6.0 5.7 5.2 5.1 5.2 5.4 6.0 5.6 6.2 6.1 5.9 5.7 7.0 6.4 6.6
7.3 7.0 6.8 6.6 6.6 6.4 6.1 6.2 5.9 6.1 5.8 5.4 5.9 5.2 4.7 4.7 4.7 4.9 4.9 5.0 5.2 5.1 5.3 5.7 5.9 6.1 6.0 5.8 5.5 4.9 4.9 5.0 5.4 5.6 5.9 5.2 4.9 4.8 5.0 5.2 5.2 5.3 5.2 5.4 5.7 6.1 7.0 6.5 6.3
6.5 6.9 6.6 6.3 6.2 6.1 6.1 5.8 5.8 5.8 5.5 5.2 5.0 5.1 5.1 5.1 4.9 4.9 5.0 5.1 5.2 5.0 5.5 5.9 5.9 5.8 5.9 5.8 5.6 5.7 4.7 5.3 5.1 5.0 5.8 5.5 5.1 5.8 4.9 5.3 5.2 5.1 5.9 6.1 6.4 6.8 6.5 6.4 6.4
6.6 6.7 6.5 6.3 6.2 6.2 6.1 6.4 5.8 5.7 5.5 5.2 5.0 5.0 5.1 5.0 5.0 5.0 5.0 5.1 5.3 4.9 5.1 5.5 5.6 5.5 5.6 5.7 5.8 5.7 5.7 4.6 4.7 4.9 5.8 5.8 5.7 5.9 6.0 5.0 5.1 5.2 6.2 6.4 6.4 6.5 6.0 6.2 6.4
6.8 6.7 6.4 6.1 6.2 6.2 6.0 6.0 5.6 5.4 5.3 5.2 5.3 5.1 5.1 5.1 4.9 4.9 4.8 4.8 5.2 5.0 4.8 5.1 5.2 5.4 5.5 5.6 5.7 5.8 5.7 5.0 4.7 4.7 5.1 5.8 5.9 5.9 5.8 5.0 5.0 6.2 6.2 5.7 6.4 5.8 5.7 6.0 6.1
7.1 6.6 6.2 6.4 6.7 6.4 6.0 5.9 5.6 5.3 5.5 5.4 5.4 5.2 5.3 5.2 4.9 4.6 4.5 4.7 4.9 5.1 5.1 5.2 5.2 5.3 5.5 5.5 5.5 5.3 5.3 5.4 4.6 4.9 4.6 5.5 5.6 5.6 5.8 5.9 5.0 6.0 6.1 6.1 6.2 5.6 6.3 5.8 5.8
7.6 7.7 7.6 7.3 6.8 6.7 7.1 6.5 5.7 5.5 5.7 5.5 5.5 5.4 5.4 5.3 5.0 4.7 4.7 4.8 5.5 5.6 5.6 5.5 5.4 5.5 5.6 5.5 5.4 5.4 5.4 5.3 4.7 5.1 4.8 5.5 5.4 5.7 5.6 5.6 6.0 6.1 6.2 6.1 6.3 6.7 6.7 6.6 6.2
8.1 7.2 7.6 7.2 7.3 7.2 7.1 6.4 5.9 5.9 6.0 5.8 5.7 5.4 5.6 5.6 5.2 5.0 4.9 4.6 5.2 5.4 5.5 5.4 5.4 5.4 5.4 5.4 5.4 5.4 5.0 5.1 5.4 5.0 5.4 5.9 5.8 5.7 6.0 6.0 5.8 6.0 6.0 6.4 6.5 6.7 6.8 6.7 6.5
8.3 8.6 8.9 8.2 7.5 7.3 7.2 6.4 6.2 6.3 6.5 6.3 6.1 5.8 5.7 5.7 5.3 5.2 4.8 4.7 4.7 5.5 5.6 5.6 5.4 5.4 5.3 5.3 5.4 5.3 5.2 4.9 4.9 5.4 5.4 5.6 5.9 6.1 6.0 6.0 6.2 6.3 6.4 6.6 6.5 6.6 6.7 6.8 6.8
9.0 9.2 8.7 8.8 7.8 7.5 5.5 7.1 6.7 6.4 6.5 6.4 6.3 6.1 5.9 5.7 5.4 5.4 5.1 4.9 4.9 4.9 5.2 5.3 5.3 5.3 5.3 5.2 5.1 5.1 5.5 5.4 5.1 5.0 5.4 5.5 5.7 6.1 6.4 6.4 6.2 6.3 6.3 6.2 6.6 6.6 6.7 6.7 6.7
9.5 9.2 9.2 9.2 9.0 8.5 7.8 6.4 6.1 6.5 6.7 6.5 6.4 6.2 6.2 5.9 5.6 5.3 5.2 5.0 4.9 4.9 4.8 5.0 4.9 4.9 5.0 5.2 5.1 4.9 4.8 5.1 5.1 5.5 5.5 5.6 5.7 6.0 6.0 6.2 6.5 6.7 6.6 6.6 6.6 6.5 6.8 6.7 6.7
9.3 8.7 9.0 9.4 9.1 8.2 8.3 8.7 7.0 6.3 7.3 6.9 6.7 6.4 6.4 6.3 6.1 5.5 5.5 5.3 5.2 5.0 5.1 4.8 4.8 4.9 4.7 4.8 4.8 5.1 5.2 5.1 5.5 5.2 4.9 5.7 5.7 5.8 5.8 6.0 6.1 6.2 6.3 6.3 6.5 6.5 6.8 7.0 7.0
8.5 8.3 8.6 9.4 9.5 9.4 9.4 9.4 8.5 8.5 8.1 7.4 7.3 6.7 6.5 6.5 6.7 6.4 6.0 5.6 5.3 5.2 5.3 5.4 5.1 5.0 5.2 5.2 5.2 5.3 5.5 5.2 5.3 4.8 5.3 5.3 5.5 5.6 6.1 5.5 6.0 6.3 6.4 6.4 6.5 6.5 6.4 6.6 6.6
8.2 9.4 9.6 9.8 9.9 9.9 9.6 9.6 8.7 7.7 7.6 8.0 7.9 7.3 6.4 6.3 6.6 6.5 5.9 5.5 5.3 5.3 5.0 5.4 5.4 5.5 5.4 5.3 5.2 5.2 5.4 5.5 5.5 5.7 5.5 5.6 5.6 5.7 5.4 5.6 5.8 6.1 6.3 6.3 6.3 6.5 6.4 6.3 6.3
8.4 9.5 9.7 9.5 9.8 9.8 9.5 9.6 8.3 7.3 8.4 7.8 7.9 7.6 7.1 6.3 6.5 6.2 6.0 5.8 5.7 5.1 5.5 5.4 5.4 5.6 5.9 5.6 5.4 5.5 6.0 5.8 5.6 6.0 5.8 5.9 6.0 5.8 6.0 6.1 6.0 6.0 6.1 6.2 6.3 6.2 6.3 6.4 6.3
9.2 9.4 9.6 9.6 9.6 9.8 9.7 8.6 7.6 7.4 6.7 7.3 6.9 7.0 7.6 6.8 6.1 5.9 5.5 5.9 5.8 5.7 6.0 5.9 5.8 5.7 5.7 6.0 5.7 6.2 6.4 5.6 6.0 6.1 6.0 6.1 6.1 5.9 6.0 6.4 6.2 6.3 6.3 6.2 6.2 6.3 6.2 6.0 6.1
8.7 9.6 9.6 9.6 9.7 9.5 9.7 9.7 9.1 7.5 6.8 6.7 6.7 6.8 6.8 6.4 5.9 5.6 5.8 5.6 6.1 6.3 6.0 6.2 6.1 6.0 6.0 6.1 5.7 5.4 5.5 5.8 5.9 6.0 6.0 5.8 6.4 6.5 6.5 6.5 6.6 6.7 6.5 6.5 6.6 6.8 6.9 6.5 6.3
8.6 8.6 9.4 9.6 9.6 9.9 10.0 9.2 8.2 7.7 7.1 7.3 6.5 6.6 6.8 6.6 6.3 5.9 6.1 6.2 6.3 6.4 6.5 6.2 6.2 6.2 6.1 6.1 5.7 5.4 5.7 6.2 6.2 6.7 7.0 7.2 6.6 6.6 6.9 6.9 7.0 6.9 6.9 6.8 6.8 6.8 6.8 6.7 6.7
9.4 9.7 9.6 9.6 9.7 9.6 9.7 9.2 7.6 7.2 6.4 7.5 6.9 5.8 5.8 6.1 6.1 6.2 6.1 6.1 6.2 6.6 6.5 6.1 5.9 6.2 5.9 6.3 5.9 5.7 6.0 6.1 6.2 6.3 7.3 6.9 6.9 6.8 6.6 6.8 6.9 6.9 7.2 7.3 7.2 7.0 6.8 6.8 6.7
Wind_Speed
11 14 7 5 3 7 16 14 16 18 12 10 12 7 17 14 12 14 15 17 16 16 17 14 12 14 14 14 16 16 16 15 15 14 15 14 14 14 14 15 15 15 17 17 16 15 15 15 15
9 3 6 5 3 11 12 14 13 11 12 11 12 12 19 18 19 19 16 16 12 15 17 16 11 15 15 15 15 15 15 15 15 14 14 14 14 14 14 15 13 15 15 15 14 13 12 12 12
13 6 5 3 5 13 11 17 15 16 13 11 13 15 10 18 17 16 19 19 16 16 19 15 13 15 15 15 15 14 15 14 15 14 13 13 13 13 14 14 13 14 14 13 12 11 10 9 8
5 6 6 2 10 20 12 15 18 15 11 15 17 14 19 15 15 21 17 17 15 12 19 15 15 15 15 15 15 15 14 13 13 12 10 14 14 13 13 13 12 12 12 11 10 9 9 7 7
8 2 3 8 16 16 15 15 14 12 11 11 16 19 20 10 20 18 16 16 16 14 18 16 14 14 14 14 15 14 13 13 13 13 14 13 14 13 12 12 12 10 10 9 8 8 9 10 11
6 2 0 11 15 13 11 9 12 11 12 10 20 22 13 16 19 17 15 12 13 16 18 17 14 13 13 15 13 14 13 13 12 13 15 14 14 13 13 12 11 9 8 7 6 7 8 8 9
7 8 11 15 15 12 13 7 10 13 11 14 20 15 15 20 17 16 14 14 12 16 18 16 16 15 13 13 13 13 13 11 10 10 11 12 12 13 13 12 9 7 5 4 4 4 5 6 7
5 2 12 10 12 13 8 11 9 13 15 14 16 10 21 20 18 16 12 16 9 12 12 17 15 12 11 14 11 11 11 9 7 5 6 10 16 14 12 15 8 5 3 3 2 2 4 5 7
5 3 8 14 13 13 12 12 11 14 13 9 5 23 22 21 19 16 13 13 12 8 8 13 18 11 9 13 11 12 9 10 9 8 10 13 10 16 13 8 5 6 6 6 6 8 9 9 10
4 8 13 13 15 12 11 14 16 13 12 15 21 23 21 19 17 17 15 14 13 15 9 9 17 11 12 16 9 11 13 9 10 6 3 12 10 7 12 9 10 10 11 12 13 14 15 14 13
6 12 13 7 15 13 14 15 11 15 14 15 20 22 21 19 18 17 14 12 15 13 14 13 11 14 8 12 11 11 10 11 10 3 8 8 6 2 9 8 8 6 12 8 15 8 12 11 8
4 9 13 12 13 12 14 13 11 6 15 18 19 20 18 16 14 12 12 17 9 14 14 7 11 3 9 9 6 5 8 7 10 10 3 5 8 5 7 6 8 3 10 4 8 9 7 7 6
6 13 14 14 11 14 10 11 10 10 16 19 19 18 17 15 13 10 6 7 12 10 15 9 11 4 8 3 6 2 9 9 12 10 3 7 9 4 4 4 7 7 6 7 7 6 5 4 7
3 12 16 10 14 10 14 11 9 12 18 19 17 16 15 13 13 12 12 11 11 9 17 10 9 9 9 6 5 4 3 10 8 5 10 2 7 4 1 2 3 6 7 7 7 6 5 5 4
17 15 15 12 11 10 13 14 11 16 16 18 16 14 12 12 12 12 10 17 11 10 15 13 13 12 9 8 8 5 9 8 5 3 4 1 5 4 7 4 4 9 6 4 1 8 2 4 5
8 9 10 15 11 8 10 12 14 16 18 16 15 13 13 12 13 11 12 9 15 7 10 13 12 12 9 7 7 6 5 3 5 4 8 4 1 1 7 3 3 9 13 6 4 4 5 5 7
9 5 12 13 12 10 13 15 16 17 16 16 14 13 13 14 12 10 10 11 12 13 14 15 11 12 10 8 7 5 4 6 5 5 6 9 4 3 5 8 6 6 11 5 4 5 7 6 5
5 12 8 15 14 14 11 17 16 17 17 16 15 14 14 14 14 12 12 12 13 12 12 11 9 9 9 7 4 5 5 6 6 2 6 8 7 3 4 8 3 6 6 5 7 4 7 7 9
2 13 4 20 13 15 12 16 18 18 17 16 16 13 14 15 16 13 11 12 13 13 14 13 12 9 7 7 7 6 5 3 2 8 4 4 6 6 3 9 5 4 5 4 5 6 6 7 7
6 7 5 6 14 10 18 18 17 16 15 16 15 16 16 16 16 14 12 12 14 13 13 13 12 11 9 7 6 5 3 2 3 7 3 8 9 6 8 6 6 5 6 5 5 5 6 8 7
11 11 6 5 10 19 15 10 18 17 14 14 15 14 16 16 16 17 14 12 12 14 13 13 13 12 10 9 5 4 4 5 5 4 7 10 12 9 8 8 8 6 6 8 4 5 6 7 7
17 7 7 15 15 1 10 1 7 17 16 15 14 15 14 17 17 15 16 14 14 13 14 13 13 12 11 11 9 5 6 7 2 2 1 2 2 7 10 10 10 8 8 9 7 8 7 5 8
7 4 9 11 12 9 7 11 11 22 17 18 17 15 16 15 18 17 16 16 13 12 13 14 13 11 8 10 9 8 8 4 5 4 8 1 5 10 11 10 11 8 7 9 8 8 7 8 9
3 6 5 9 12 13 11 11 10 11 15 18 16 17 13 14 13 15 15 13 11 6 3 6 14 10 10 6 1 7 5 8 10 5 6 5 6 2 12 8 7 9 8 9 9 9 10 10 10
11 14 9 11 10 10 4 6 12 13 6 3 6 18 18 12 15 12 9 10 8 6 2 3 12 5 4 4 2 4 4 5 8 8 6 8 9 7 7 5 8 7 8 11 10 10 10 10 11
16 18 13 12 12 7 10 8 10 11 7 4 7 10 19 20 14 14 14 11 9 13 11 12 12 11 9 8 9 9 12 6 3 6 5 3 4 5 8 10 11 11 12 11 11 11 11 12 12
15 17 17 15 16 10 8 10 10 12 8 5 7 11 14 18 5 13 20 18 16 13 14 14 11 11 8 12 8 7 5 4 6 7 5 4 3 6 5 8 9 10 10 10 10 9 11 12 12
16 8 14 10 16 17 14 10 10 14 13 11 7 18 18 21 21 12 15 14 14 12 13 14 12 10 7 7 6 5 7 4 4 4 6 7 5 6 10 12 12 11 11 11 11 10 11 11 11
13 15 15 16 13 9 10 3 11 13 14 14 12 13 14 16 14 11 13 14 10 10 10 12 11 12 11 8 8 6 7 7 8 9 7 7 9 9 11 11 12 12 12 12 11 10 12 13 12
10 10 17 14 16 12 11 2 8 11 19 18 14 13 12 11 11 7 10 12 8 9 9 9 9 9 9 6 7 7 7 9 9 9 12 13 10 11 13 13 13 13 13 13 13 13 13 13 14
Wind_Direction
208 223 247 262 257 122 94 110 120 120 109 97 71 75 77 35 11 99 142 130 127 116 126 106 103 100 103 101 94 94 92 91 89 89 89 86 86 92 89 87 90 88 89 87 91 90 80 84 85
238 211 229 272 151 102 116 114 101 92 117 109 107 108 62 68 90 120 119 126 114 100 109 104 105 101 99 92 91 90 88 89 84 87 89 91 90 88 87 92 89 90 88 86 87 85 81 79 83
250 252 265 215 104 105 122 122 122 117 127 111 84 49 50 110 113 115 125 121 128 122 113 105 103 96 97 95 93 91 90 87 87 89 91 93 92 91 90 91 91 92 93 87 86 81 77 79 88
256 202 225 185 106 118 125 111 115 133 109 96 107 83 105 88 102 121 138 131 106 112 104 107 97 97 95 93 93 93 93 87 84 77 87 96 97 95 95 98 99 98 96 91 83 73 67 74 103
240 211 130 88 98 93 98 120 132 131 122 122 103 111 117 94 113 131 136 117 135 133 119 109 98 97 97 94 97 100 91 87 84 79 84 105 95 98 100 104 103 104 102 96 85 70 70 83 112
235 356 293 104 103 104 109 133 131 120 112 108 110 125 111 126 136 138 138 142 138 119 119 121 104 103 102 99 102 96 91 82 81 83 85 89 96 102 107 106 107 108 105 99 84 72 74 100 109
124 195 117 108 117 103 85 137 118 118 129 116 133 124 131 146 141 138 144 136 132 130 122 128 113 116 107 102 102 100 93 88 83 85 94 104 110 112 115 112 112 114 114 105 85 78 90 100 126
287 341 122 112 112 107 113 87 119 126 94 97 129 136 151 144 148 141 156 131 135 138 134 119 113 110 125 123 111 107 103 109 106 120 145 155 144 139 134 137 122 134 160 161 170 190 166 139 149
253 250 92 104 113 114 130 112 80 102 130 135 87 141 134 145 148 150 153 147 144 134 138 138 115 139 172 140 131 130 148 154 152 183 196 207 171 140 127 91 156 193 207 203 210 224 209 185 190
257 98 83 81 116 126 124 114 129 126 124 125 121 118 137 149 158 157 164 156 162 148 148 103 122 182 203 113 149 130 163 129 76 47 33 84 76 65 94 124 184 201 211 216 214 224 232 207 189
309 83 96 117 111 121 116 132 145 130 133 128 134 138 150 160 164 170 176 160 164 161 145 151 157 198 147 119 152 169 130 141 123 78 36 14 80 57 160 121 145 146 193 181 207 189 221 45 13
105 108 105 121 117 119 97 136 108 147 115 130 137 146 153 162 164 168 171 159 165 168 139 190 140 195 95 121 190 118 126 137 170 99 162 194 136 97 58 40 126 80 83 37 15 58 16 31 92
134 111 116 99 110 96 114 103 92 97 119 130 139 151 160 168 162 163 106 115 153 182 142 145 144 182 101 242 87 201 114 210 100 161 62 24 88 20 48 34 62 35 38 53 31 28 37 270 105
125 106 113 145 108 130 116 135 112 136 132 134 148 158 168 151 164 139 157 149 174 187 138 137 147 149 142 104 162 171 223 88 236 159 100 131 21 354 4 184 78 83 47 21 32 337 350 327 48
154 141 138 135 148 141 146 113 111 139 138 145 152 158 154 154 152 158 155 147 175 174 156 166 174 163 152 146 172 221 162 195 159 143 133 92 344 56 313 74 308 42 335 269 106 299 308 358 340
149 165 154 145 160 151 74 119 133 144 149 153 148 144 153 155 157 158 140 171 149 160 128 169 186 162 166 160 179 184 122 188 215 207 167 188 217 50 293 284 17 37 292 303 342 340 340 25 338
112 163 209 148 193 151 132 133 145 156 157 158 155 152 154 152 148 145 153 159 154 166 161 175 191 168 163 158 184 200 148 247 201 206 225 149 256 291 298 294 5 358 294 300 319 11 339 332 307
280 190 148 138 176 169 195 123 159 171 166 163 164 162 160 159 150 158 159 145 157 150 167 178 182 165 170 164 218 218 197 218 229 218 217 148 230 198 301 297 288 296 289 293 23 349 319 297 298
321 182 51 160 146 200 147 145 161 172 172 168 167 170 169 168 150 153 151 146 150 159 168 180 184 179 187 199 202 206 224 253 272 198 210 131 218 252 221 275 274 294 262 12 304 285 293 293 304
257 212 158 139 173 224 148 154 159 174 175 170 179 168 170 162 154 162 165 158 159 162 174 181 188 183 205 205 230 294 342 343 316 80 120 229 216 250 259 251 268 307 308 258 252 274 303 280 281
232 250 186 101 197 97 302 157 155 171 169 164 181 173 179 168 167 165 168 178 179 162 178 183 194 193 203 240 210 216 282 310 262 290 217 210 215 232 252 264 268 303 273 274 228 254 278 286 300
271 147 297 154 223 348 213 173 328 168 171 165 181 175 192 171 177 173 173 186 191 181 179 183 190 200 203 215 241 220 213 252 214 341 267 25 295 292 281 273 261 257 286 316 292 247 245 256 276
44 220 219 234 152 213 237 232 177 215 176 174 182 180 189 189 176 179 188 185 198 185 188 183 185 190 228 195 244 239 229 293 318 8 344 274 316 269 252 261 270 269 258 260 274 289 278 288 269
98 200 251 276 276 233 192 245 171 162 179 172 190 169 195 189 197 186 182 170 177 163 182 169 167 192 193 214 227 267 302 285 289 278 294 290 279 262 283 236 242 268 276 271 269 260 255 256 274
237 222 219 220 225 245 184 197 100 112 65 85 186 173 183 205 198 178 151 160 139 146 116 50 109 127 94 70 6 289 262 276 285 316 327 322 324 335 318 356 329 308 283 278 271 259 261 264 260
231 253 251 245 243 246 118 223 120 118 139 205 247 262 174 184 195 188 191 188 156 131 123 99 66 112 103 61 47 41 18 358 314 21 0 323 326 318 343 337 324 313 294 283 282 278 262 245 247
229 228 268 298 295 277 243 107 126 152 128 209 210 208 234 166 100 93 76 67 86 93 88 83 89 82 71 77 50 71 56 31 356 344 325 0 308 332 330 312 312 315 305 293 267 274 276 280 264
266 303 239 234 262 274 280 243 139 164 143 88 58 65 71 69 78 64 67 75 83 98 106 98 99 113 137 103 75 6 328 21 306 316 331 337 305 345 316 308 307 308 307 304 304 290 274 276 271
199 244 251 288 290 288 261 96 74 123 131 134 99 72 67 77 85 87 96 92 89 81 75 80 69 60 58 31 45 24 340 348 328 325 337 320 328 318 298 296 297 295 297 297 296 287 284 278 279
298 251 229 231 238 258 274 56 99 116 118 110 106 99 82 67 65 72 94 106 110 89 56 74 68 65 52 26 19 345 341 346 326 341 338 330 320 314 302 303 298 289 286 284 283 284 292 287 275